Time,TemperatureF,DewpointF,PressureIn,WindDirection,WindDirectionDegrees,WindSpeedMPH,WindSpeedGustMPH,Humidity,HourlyPrecipIn,Conditions,Clouds,dailyrainin,SoftwareType,DateUTC
2013-11-23 00:32:00,23.4,19.0,30.79,NNE,23,0.0,0.0,83,0.00,,,0.00,WUHU21623XXSP,2013-11-23 05:32:00,
2013-11-23 01:32:00,23.5,19.6,30.79,ENE,68,0.0,0.0,85,0.00,,,0.00,WUHU21623XXSP,2013-11-23 06:32:00,
2013-11-23 02:32:00,24.6,20.7,30.76,NE,45,0.0,0.0,85,0.00,,,0.00,WUHU21623XXSP,2013-11-23 07:32:00,
2013-11-23 03:32:00,25.2,21.3,30.74,NE,45,1.8,1.8,85,0.00,,,0.00,WUHU21623XXSP,2013-11-23 08:32:00,
2013-11-23 04:32:00,26.4,22.2,30.73,East,90,0.0,0.0,84,0.00,,,0.00,WUHU21623XXSP,2013-11-23 09:32:00,
2013-11-23 05:32:00,27.0,21.7,30.74,East,90,0.0,0.0,80,0.00,,,0.00,WUHU21623XXSP,2013-11-23 10:32:00,
2013-11-23 06:32:00,27.0,21.7,30.75,SE,135,0.0,0.0,80,0.00,,,0.00,WUHU21623XXSP,2013-11-23 11:32:00,
2013-11-23 07:32:00,25.3,20.6,30.76,SE,135,0.0,0.0,82,0.00,,,0.00,WUHU21623XXSP,2013-11-23 12:32:00,
2013-11-23 08:32:00,24.4,17.6,30.79,East,90,0.0,0.0,75,0.00,,,0.00,WUHU21623XXSP,2013-11-23 13:32:00,
2013-11-23 09:32:00,24.1,15.8,30.80,East,90,8.3,8.3,70,0.00,,,0.00,WUHU21623XXSP,2013-11-23 14:32:00,
2013-11-23 10:32:00,25.7,16.7,30.81,WSW,248,0.0,0.0,68,0.00,,,0.00,WUHU21623XXSP,2013-11-23 15:32:00,
2013-11-23 11:32:00,24.6,15.6,30.84,ESE,113,0.0,0.0,68,0.00,,,0.00,WUHU21623XXSP,2013-11-23 16:32:00,
2013-11-23 12:32:00,25.2,13.7,30.84,NW,315,2.9,2.9,61,0.00,,,0.00,WUHU21623XXSP,2013-11-23 17:32:00,
2013-11-23 13:32:00,25.3,11.8,30.85,East,90,3.4,3.4,56,0.00,,,0.00,WUHU21623XXSP,2013-11-23 18:32:00,
2013-11-23 14:32:00,24.4,10.9,30.85,WSW,248,0.0,0.0,56,0.00,,,0.00,WUHU21623XXSP,2013-11-23 19:32:00,
2013-11-23 15:32:00,23.7,11.1,30.89,ENE,68,0.0,0.0,58,0.00,,,0.00,WUHU21623XXSP,2013-11-23 20:32:00,
2013-11-23 16:32:00,20.8,11.3,30.90,ESE,113,0.0,0.0,66,0.00,,,0.00,WUHU21623XXSP,2013-11-23 21:32:00,
2013-11-23 17:32:00,18.7,9.9,30.93,ENE,68,0.0,0.0,68,0.00,,,0.00,WUHU21623XXSP,2013-11-23 22:32:00,
2013-11-23 18:32:00,18.0,9.3,30.95,ESE,113,0.0,0.0,68,0.00,,,0.00,WUHU21623XXSP,2013-11-23 23:32:00,
2013-11-23 19:32:00,16.9,8.5,30.97,East,90,0.0,0.0,69,0.00,,,0.00,WUHU21623XXSP,2013-11-24 00:32:00,
2013-11-23 20:32:00,16.0,8.0,30.98,East,90,0.0,0.0,70,0.00,,,0.00,WUHU21623XXSP,2013-11-24 01:32:00,
2013-11-23 21:32:00,16.2,8.8,30.99,SSW,203,0.0,0.0,72,0.00,,,0.00,WUHU21623XXSP,2013-11-24 02:32:00,
2013-11-23 22:32:00,16.7,9.6,30.99,East,90,0.0,0.0,73,0.00,,,0.00,WUHU21623XXSP,2013-11-24 03:32:00,
2013-11-23 23:32:00,16.5,9.7,30.99,SE,135,0.0,0.0,74,0.00,,,0.00,WUHU21623XXSP,2013-11-24 04:32:00,